ハウエル彗星

88P/Howell (2026)

English version
Home page
Updated on January 24, 2026

---------------------------------------------------------------------

・ プロフィール

・ 写真集

・ 軌道要素

Epoch 2025 May 5.0 TT = JDT 2460800.5
T 2026 Mar. 18.79594 TT                                 Pike
q   1.3576747            (2000.0)            P               Q
n   0.17984852     Peri.  235.88250     +0.38149036     +0.92216587
a   3.1083611      Node    56.66892     -0.82094604     +0.36973903
e   0.5632185      Incl.    4.38197     -0.42486787     +0.11359204
P   5.48
From 2522 observations 2015 July 7-2025 Feb. 27, mean residual 0".8.
     Nongravitational parameters A1 = +0.67, A2 = +0.0116.

・ 星図

・ 光度変化

        m1 =  5.2 + 5 logΔ + 20.0 log r          [    ,-350]  (              〜2025年 4月 2日)
        m1 = 15.5 + 5 logΔ +  0   log r          [-350,-275]  (2025年 4月 2日〜2025年 6月16日)
        m1 =  5.2 + 5 logΔ + 22.0 log r(t - 15)  [-275,  45]  (2025年 6月16日〜2026年 5月 2日)
        m1 =  5.2 + 5 logΔ + 20.0 log r          [  45,    ]  (2026年 5月 2日〜              )

---------------------------------------------------------------------

軌道要素はM.P.E.C. 2025-D254に掲載されたものです。
星図はステラナビゲータ Ver.10 (アストロアーツ) で作成したものです。
光度グラフはComet for Windowsで作成したものです。

---------------------------------------------------------------------

Copyright(C) Seiichi Yoshida (comet@aerith.net). All rights reserved.